Meridian, MS

9:25 PM CST on November 16, 2019 (GMT -0600)
Key

Weather History for KMEI - September, 2019

Change the Weather History Date:

Monday, September 23, 2019

  Actual Average Record
Temperature  
Mean Temperature 79 °F 72 °F  
Max Temperature 94 °F 85 °F 99 °F (2016)
Min Temperature 64 °F 60 °F 40 °F (1999)
Degree Days  
Heating Degree Days 0 0  
Month to date heating degree days 0 0  
Since 1 July heating degree days 0 0  
Cooling Degree Days 14 8  
Month to date cooling degree days 425 257  
Year to date cooling degree days 2508 1877  
Growing Degree Days 29 (Base 50)    
Moisture  
Dew Point 67 °F    
Average Humidity 72    
Maximum Humidity 93    
Minimum Humidity 44    
Precipitation  
Precipitation 0.00 in 0.11 in 3.85 in (1904)
Month to date precipitation 0.23 2.60  
Year to date precipitation 43.18 41.56  
Sea Level Pressure  
Sea Level Pressure 30.05 in    
Wind  
Wind Speed 2 mph ()    
Max Wind Speed 12 mph    
Max Gust Speed 14 mph    
Visibility 10.0 miles    
Events      
T = Trace of Precipitation, MM = Missing Value Source: Averaged Metar Reports

Daily Weather History Graph

Daily Weather History Graph

Search for Another Location

Airport or City:

Astronomy

Sep. 23, 2019 Rise Set
Actual Time 6:43 AM CDT 6:50 PM CDT
Civil Twilight 6:19 AM CDT 7:15 PM CDT
Nautical Twilight 5:50 AM CDT 7:43 PM CDT
Astronomical Twilight 5:21 AM CDT 8:12 PM CDT
Moon 12:48 AM CDT (9/23) 3:22 PM CDT (9/23)
Length of Visible Light 12h 55m
Length of Day
12h 06m
Waning Crescent, 33% of the Moon is Illuminated
Sep 23
Waning Crescent
Sep 28
New
Oct 5
First Quarter
Oct 13
Full
Oct 21
Last Quarter

Hourly Weather History & Observations

Time (CDT) Temp. Heat Index Dew Point Humidity Pressure Visibility Wind Dir Wind Speed Gust Speed Precip Events Conditions
12:58 AM 66.9 °F - 63.0 °F 87% 30.08 in 10.0 mi SSW 5.8 mph - N/A   Clear
1:58 AM 68.0 °F - 63.0 °F 84% 30.08 in 10.0 mi Calm Calm - N/A   Clear
2:58 AM 66.0 °F - 62.1 °F 87% 30.07 in 10.0 mi SSW 3.5 mph - N/A   Clear
3:58 AM 64.9 °F - 62.1 °F 90% 30.07 in 10.0 mi Calm Calm - N/A   Clear
4:58 AM 64.9 °F - 62.1 °F 90% 30.07 in 10.0 mi South 3.5 mph - N/A   Clear
5:58 AM 64.9 °F - 61.0 °F 87% 30.08 in 10.0 mi Calm Calm - N/A   Clear
6:58 AM 64.0 °F - 61.0 °F 90% 30.10 in 10.0 mi Calm Calm - N/A   Clear
7:58 AM 69.1 °F - 64.0 °F 84% 30.12 in 10.0 mi Calm Calm - N/A   Overcast
8:58 AM 73.0 °F - 66.9 °F 81% 30.12 in 10.0 mi Calm Calm - N/A   Overcast
9:58 AM 80.1 °F 83.2 °F 70.0 °F 71% 30.12 in 10.0 mi SE 3.5 mph - N/A   Scattered Clouds
10:58 AM 87.1 °F 90.6 °F 68.0 °F 53% 30.11 in 10.0 mi West 4.6 mph - N/A   Clear
11:58 AM 88.0 °F 90.7 °F 66.9 °F 49% 30.09 in 10.0 mi Calm Calm - N/A   Mostly Cloudy
12:58 PM 90.0 °F 92.8 °F 66.9 °F 46% 30.07 in 10.0 mi NW 4.6 mph - N/A   Mostly Cloudy
1:58 PM 93.0 °F 97.4 °F 68.0 °F 44% 30.04 in 10.0 mi Variable 6.9 mph - N/A   Scattered Clouds
2:58 PM 91.9 °F 95.4 °F 66.9 °F 44% 30.02 in 10.0 mi West 5.8 mph - N/A   Partly Cloudy
3:58 PM 91.9 °F 95.9 °F 68.0 °F 45% 30.01 in 10.0 mi WSW 5.8 mph - N/A   Scattered Clouds
4:58 PM 93.0 °F 97.4 °F 68.0 °F 44% 30.00 in 10.0 mi WSW 6.9 mph - N/A   Mostly Cloudy
5:58 PM 87.1 °F 91.3 °F 69.1 °F 55% 29.99 in 10.0 mi Calm Calm - N/A   Clear
6:58 PM 81.0 °F 84.9 °F 71.1 °F 72% 30.00 in 10.0 mi WNW 3.5 mph - N/A   Partly Cloudy
7:58 PM 79.0 °F - 71.1 °F 77% 30.00 in 10.0 mi South 3.5 mph - N/A   Clear
8:58 PM 77.0 °F - 71.1 °F 82% 30.00 in 10.0 mi Calm Calm - N/A   Clear
9:58 PM 75.9 °F - 71.1 °F 85% 30.01 in 10.0 mi South 3.5 mph - N/A   Clear
10:58 PM 73.9 °F - 70.0 °F 87% 30.00 in 10.0 mi Calm Calm - N/A   Clear
11:58 PM 73.9 °F - 70.0 °F 87% 29.99 in 10.0 mi Calm Calm - N/A   Overcast